Regional Weather Roundup
Issued by NWS

Home | Current Version | Previous Version | Graphics & Text | Print | Product List | Glossary On
Versions: 1 2 3 4 5 6 7 8 9 10 11 12 13 14 15 16 17 18 19 20 21 22 23 24 25 26 27 28 29 30 31 32 33 34 35 36 37 38 39 40 41 42 43 44 45 46 47 48 49 50
000
ASUS43 KOAX 180502
RWRNE

WEATHER ROUNDUP FOR NEBRASKA
NATIONAL WEATHER SERVICE OMAHA NE
1200 AM CDT WED OCT 18 2017

NOTES: SATELLITE DATA IS BEING USED TO AUGMENT CLOUD COVER ABOVE
       12000 FEET.
       "FAIR" INDICATES FEW OR NO CLOUDS BELOW 12,000 FEET WITH NO
       SIGNIFICANT WEATHER AND/OR OBSTRUCTIONS TO VISIBILITY.


NEZ001>004-019>022-054>056-180600-
NEBRASKA PANHANDLE

CITY           SKY/WX    TMP DP  RH WIND       PRES   REMARKS
SCOTTSBLUFF    CLOUDY    44  27  51 NE6       29.96F
ALLIANCE       CLOUDY    38  24  57 SW5       29.94F WCI  34
CHADRON        CLOUDY    44  23  43 SW9       29.88S
GORDON         FAIR      53  23  31 W6        29.89F
KIMBALL        CLOUDY    45  26  47 W13       30.04F
SIDNEY         CLOUDY    42  24  49 W8        30.01F
$$

NEZ057>060-069>072-079>082-180600-
SOUTHWEST NEBRASKA

CITY           SKY/WX    TMP DP  RH WIND       PRES   REMARKS
NORTH PLATTE   CLEAR     58  35  42 S9        29.94F
IMPERIAL       CLEAR     47  29  49 SW7       29.99S
LEXINGTON      CLEAR     53  37  55 SE5       29.96F
MCCOOK         CLEAR     55  35  47 SW10      29.96F
OGALLALA       CLEAR     53  28  37 SW7       29.97F
$$

NEZ005>010-023>029-035>040-094-180600-
NORTH CENTRAL NEBRASKA

CITY           SKY/WX    TMP DP  RH WIND       PRES   REMARKS
VALENTINE      CLEAR     55  29  36 SW12      29.85F
AINSWORTH      CLEAR     54  32  43 SW14      29.88F
BROKEN BOW     CLEAR     56  38  50 S6        29.93F
O`NEILL        CLEAR     54  41  62 S6        29.89F
ORD            CLEAR     52  37  56 S9        29.91F
THEDFORD       CLEAR     56  31  38 SW8       29.93F
$$

NEZ041-046>049-061>064-073>077-083>087-180600-
SOUTH CENTRAL NEBRASKA

CITY           SKY/WX    TMP DP  RH WIND       PRES   REMARKS
GRAND ISLAND   CLEAR     55  45  68 S10       29.95F
AURORA         CLEAR     57  44  62 S9        29.96F
HASTINGS       CLEAR     56  43  61 S8        29.97F
HEBRON         CLEAR     56  47  71 S8        29.99F
HOLDREGE       CLEAR     55  41  60 S9        29.96F
KEARNEY        CLEAR     53  42  66 S9        29.95F
YORK           CLEAR     54  46  76 S9        29.97F
$$

NEZ011>018-030>034-042>045-180600-
NORTHEAST NEBRASKA

CITY           SKY/WX    TMP DP  RH WIND       PRES   REMARKS
NORFOLK        CLEAR     54  45  71 S10       29.93F
ALBION         CLEAR     56  43  62 SE5       29.94F
BLAIR          CLEAR     55  46  73 S7        29.98S
COLUMBUS       CLEAR     53  45  74 SE3       29.96F
FREMONT        CLEAR     60  46  59 S7        29.97F
TEKAMAH        CLEAR     45  42  89 SE6       29.97F
WAYNE          CLEAR     49  46  88 CALM      29.94F
$$

NEZ050>053-065>068-078-088>093-180600-
SOUTHEAST NEBRASKA

CITY           SKY/WX    TMP DP  RH WIND       PRES   REMARKS
LINCOLN        PTCLDY    52  46  80 SE6       30.00S
OMAHA EPPLEY   CLEAR     53  45  74 SE7       29.99F
BEATRICE       CLEAR     56  47  73 S7        30.01S
FALLS CITY     CLEAR     57  47  69 S9        30.03S
NEBRASKA CITY  PTCLDY    55  48  76 S10       30.01F
PLATTSMOUTH    CLEAR     55  48  76 S8        30.00F
$$

NEZ044-045-051>053-067-180600-
OMAHA AREA

CITY           SKY/WX    TMP DP  RH WIND       PRES   REMARKS
OMAHA EPPLEY   CLEAR     53  45  74 SE7       29.99F
BLAIR          CLEAR     55  46  73 S7        29.98S
FREMONT        CLEAR     60  46  59 S7        29.97F
MILLARD        CLEAR     53  48  82 SE3       29.99F
OFFUTT AFB     CLEAR     47  43  87 SE3       29.99S
PLATTSMOUTH    CLEAR     55  48  76 S8        30.00F
WAHOO          FAIR      52  45  78 S5        29.97F
$$




USA.gov is the U.S. government's official web portal to all federal, state and local government web resources and services.